Millington, TN

5:06 AM CDT on May 26, 2017 (GMT -0500)
Millington Municipal

Weather History for KNQA - September, 2013

Change the Weather History Date:

Sunday, September 8, 2013

  Actual Average Record
Temperature  
Mean Temperature 83 °F -  
Max Temperature 98 °F 86 °F 98 °F (2013)
Min Temperature 68 °F 65 °F 55 °F (2011)
Cooling Degree Days 18    
Growing Degree Days 33 (Base 50)    
Moisture  
Dew Point 71 °F    
Average Humidity 76    
Maximum Humidity 100    
Minimum Humidity 39    
Precipitation  
Precipitation 0.00 in - - ()
Sea Level Pressure  
Sea Level Pressure 29.96 in    
Wind  
Wind Speed 1 mph (SW)    
Max Wind Speed 7 mph    
Max Gust Speed -    
Visibility 10 miles    
Events      
Averages and records for this station are not official NWS values.
T = Trace of Precipitation, MM = Missing Value Source: NWS Daily Summary

Daily Weather History Graph

Daily Weather History Graph

Search for Another Location

Airport or City:

Trip Planner

Search our weather history database for the weather conditions in past years. The results will help you decide how hot, cold, wet, or windy it might be!

Date:

Astronomy

Sep. 08, 2013 Rise Set
Actual Time 6:37 AM CDT 7:16 PM CDT
Civil Twilight 6:11 AM CDT 7:41 PM CDT
Nautical Twilight 5:41 AM CDT 8:12 PM CDT
Astronomical Twilight 5:10 AM CDT 8:42 PM CDT
Moon 9:45 AM CDT (9/8) 9:01 PM CDT (9/8)
Length of Visible Light 13h 30m
Length of Day
12h 38m
Waxing Crescent, 11% of the Moon is Illuminated
Sep 8
Waxing Crescent
Sep 12
First Quarter
Sep 19
Full
Sep 26
Last Quarter
Oct 4
New

Hourly Weather History & Observations

Time (CDT) Temp. Heat Index Dew Point Humidity Pressure Visibility Wind Dir Wind Speed Gust Speed Precip Events Conditions
12:55 AM 71.6 °F - 69.8 °F 94% 29.99 in 10.0 mi Calm Calm - N/A   Clear
1:55 AM 71.6 °F - 69.8 °F 94% 29.98 in 10.0 mi Calm Calm - N/A   Clear
2:55 AM 69.8 °F - 69.8 °F 100% 29.97 in 10.0 mi Calm Calm - N/A   Clear
3:15 AM 69.8 °F - 69.8 °F 100% 29.97 in 10.0 mi Calm Calm - N/A   Clear
3:35 AM 71.6 °F - 69.8 °F 94% 29.97 in 10.0 mi Calm Calm - N/A   Clear
3:55 AM 69.8 °F - 69.8 °F 100% 29.97 in 10.0 mi Calm Calm - N/A   Clear
4:15 AM 69.8 °F - 69.8 °F 100% 29.96 in 10.0 mi Calm Calm - N/A   Clear
4:35 AM 69.8 °F - 68.0 °F 94% 29.97 in 10.0 mi Calm Calm - N/A   Clear
4:55 AM 69.8 °F - 68.0 °F 94% 29.97 in 10.0 mi Calm Calm - N/A   Clear
5:15 AM 69.8 °F - 68.0 °F 94% 29.97 in 10.0 mi Calm Calm - N/A   Clear
5:35 AM 69.8 °F - 69.8 °F 100% 29.97 in 10.0 mi Calm Calm - N/A   Clear
5:55 AM 69.8 °F - 68.0 °F 94% 29.97 in 10.0 mi Calm Calm - N/A   Clear
6:55 AM 68.0 °F - 66.2 °F 94% 29.99 in 9.0 mi Calm Calm - N/A   Clear
7:55 AM 73.4 °F - 69.8 °F 88% 29.98 in 10.0 mi SE 3.5 mph - N/A   Clear
8:55 AM 80.6 °F 84.6 °F 71.6 °F 74% 29.99 in 10.0 mi Calm Calm - N/A   Clear
9:55 AM 87.8 °F 93.8 °F 71.6 °F 58% 30.00 in 10.0 mi WSW 3.5 mph - N/A   Clear
10:55 AM 91.4 °F 100.1 °F 73.4 °F 55% 29.99 in 10.0 mi Variable 3.5 mph - N/A   Clear
11:55 AM 93.2 °F 102.4 °F 73.4 °F 52% 29.98 in 10.0 mi WSW 6.9 mph - N/A   Clear
12:55 PM 96.8 °F 107.3 °F 73.4 °F 47% 29.97 in 10.0 mi SW 5.8 mph - N/A   Clear
1:55 PM 98.6 °F 109.2 °F 73.4 °F 44% 29.96 in 10.0 mi SW 4.6 mph - N/A   Scattered Clouds
2:55 PM 98.6 °F 107.7 °F 71.6 °F 42% 29.93 in 10.0 mi West 5.8 mph - N/A   Scattered Clouds
3:55 PM 98.6 °F 105.5 °F 69.8 °F 39% 29.92 in 10.0 mi Variable 3.5 mph - N/A   Scattered Clouds
4:55 PM 98.6 °F 105.5 °F 69.8 °F 39% 29.91 in 10.0 mi SW 3.5 mph - N/A   Scattered Clouds
5:55 PM 95.0 °F 101.3 °F 69.8 °F 44% 29.90 in 10.0 mi Calm Calm - N/A   Scattered Clouds
6:55 PM 87.8 °F 93.8 °F 71.6 °F 58% 29.91 in 10.0 mi Calm Calm - N/A   Scattered Clouds
7:55 PM 82.4 °F 89.5 °F 75.2 °F 79% 29.93 in 10.0 mi Calm Calm - N/A   Clear
8:55 PM 80.6 °F 85.4 °F 73.4 °F 79% 29.93 in 10.0 mi Calm Calm - N/A   Clear
9:55 PM 80.6 °F 85.4 °F 73.4 °F 79% 29.94 in 10.0 mi Calm Calm - N/A   Clear
10:55 PM 78.8 °F - 73.4 °F 83% 29.96 in 10.0 mi Calm Calm - N/A   Clear
11:55 PM 80.6 °F 85.4 °F 73.4 °F 79% 29.95 in 10.0 mi Calm Calm - N/A   Clear